Location: Aragoneses
(41.0275°N, 4.3847°W)
Time: 16:21:15
(UTC+00:00)

SOZ - Pass Details

Date: 11 December 2025
Orbit: 282 x 12147 km, 52.0° (Epoch: 16 January)

Event Time Altitude Azimuth Distance (km) Brightness Sun altitude
Rises 17:21:29 0° 238° (WSW) 3,671 11.5 -6.2°
Reaches altitude 10° 17:25:01 10° 242° (WSW) 1,908 9.4 -6.8°
Maximum altitude 17:28:30 60° 324° (NW) 405 4.2 -7.4°
Enters shadow 17:30:33 10° 46° (NE) 1,133 5.8 -7.8°
